SCP
0 0 0 0 0 0 0 0 0 0 0 0 0 0 0 0 0 0 0 1 1 1 1 1 1 1 1 1 1 1 1 1 1 1 1 1 1 1 1 1 1 1 1 1 0 0 0 0 0
0 0 0 0 0 0 0 0 0 0 0 0 0 0 0 0 0 0 0 1 1 1 1 1 1 1 1 1 1 1 1 1 1 1 1 1 1 1 1 1 1 1 1 1 1 0 0 0 1
0 0 0 0 0 0 0 0 0 0 0 0 0 0 0 0 0 0 0 1 1 1 1 1 1 1 1 1 1 1 1 1 1 1 1 1 1 1 1 1 1 1 1 1 1 1 1 1 1
0 0 0 0 0 0 0 0 0 0 0 0 0 0 0 0 0 0 0 0 1 1 1 1 1 1 1 1 1 1 1 1 1 1 1 1 1 1 1 1 1 1 1 1 1 1 1 1 1
0 0 0 0 0 0 0 0 0 0 0 0 0 0 0 0 0 0 0 1 1 1 1 1 1 1 1 1 1 1 1 1 1 1 1 1 1 1 1 1 1 1 1 1 1 1 1 1 1
0 0 0 0 0 0 0 0 0 0 0 0 0 0 0 0 0 0 0 1 1 1 1 1 1 1 1 1 1 0 0 1 1 1 1 0 1 1 1 1 1 1 1 1 1 1 1 1 1
0 0 0 0 0 0 0 0 0 0 0 0 0 0 0 0 0 0 0 1 1 1 1 1 1 1 1 1 0 0 0 0 1 1 1 0 0 1 1 1 1 1 1 1 1 1 1 1 1
0 0 0 0 0 0 0 0 0 0 0 0 0 0 0 0 0 0 1 1 1 1 1 1 1 0 0 1 1 0 0 0 0 0 0 0 0 0 0 0 0 0 0 0 0 0 0 0 0
0 0 0 0 0 0 0 0 0 0 0 0 0 0 0 0 0 1 1 1 1 1 1 1 1 1 1 1 1 0 0 0 0 0 0 0 0 0 0 0 0 0 0 0 0 0 0 0 0
0 0 0 0 0 0 0 0 0 0 0 0 0 0 0 1 1 1 1 1 1 1 1 1 1 1 1 1 1 0 0 0 0 0 0 0 0 0 0 0 0 0 0 0 0 0 0 0 0
0 0 0 0 0 0 0 0 0 0 0 0 0 0 1 1 1 1 1 1 1 1 1 1 1 1 1 1 1 0 0 0 0 0 0 0 0 0 0 0 0 0 0 0 0 0 0 0 0
0 0 0 0 0 0 0 0 0 0 0 0 0 0 0 1 1 1 1 1 1 1 1 1 1 1 1 1 1 1 1 0 0 0 0 0 0 0 0 0 0 0 0 0 0 0 0 0 0
0 0 0 0 0 0 0 0 0 0 0 0 0 0 0 0 0 1 1 0 0 0 1 1 1 1 1 1 1 1 1 1 0 0 0 0 0 0 0 0 0 0 0 0 1 0 0 0 0
0 0 0 0 0 0 0 0 0 0 0 0 0 0 0 0 0 0 0 0 0 0 0 1 1 1 1 1 1 1 1 1 1 0 0 0 0 0 0 0 0 0 0 1 1 1 1 1 1
0 0 0 0 0 0 0 0 0 0 0 0 0 0 0 0 0 0 0 1 1 1 0 0 1 1 1 1 1 1 1 1 1 1 0 0 0 0 0 0 0 0 0 1 1 1 1 1 1
0 0 0 0 0 0 0 0 0 0 0 0 0 0 0 0 0 0 0 0 1 1 0 0 0 0 0 1 1 1 1 1 1 1 1 0 0 0 0 0 0 0 0 1 1 1 1 1 1
0 0 0 0 0 0 0 0 0 0 0 0 0 0 0 0 0 0 0 0 1 1 1 0 0 0 1 1 1 1 1 1 1 1 1 0 0 0 0 0 0 0 0 0 1 1 1 1 1
0 0 0 0 0 0 0 0 0 0 0 0 0 0 0 0 0 0 0 0 1 1 1 1 0 0 1 1 1 1 1 1 1 1 1 1 0 0 0 0 0 0 0 0 0 1 1 0 0
0 0 0 0 0 0 0 0 0 0 0 0 0 0 0 0 0 0 0 0 1 1 1 1 0 0 0 1 1 1 1 1 1 1 1 1 0 0 0 0 0 0 0 0 0 0 0 0 0
0 0 0 0 0 0 0 0 0 0 0 0 0 0 0 0 0 0 0 0 0 1 1 1 0 0 0 0 1 1 1 1 1 0 0 0 0 0 0 0 0 0 0 0 0 0 0 0 0
0 0 0 0 0 0 0 0 0 0 0 0 0 0 0 0 0 0 0 0 0 1 1 1 1 0 0 0 0 1 1 1 1 0 0 0 0 0 0 0 0 0 0 0 0 0 0 0 0
0 0 0 0 0 0 0 0 0 0 0 0 0 0 0 0 0 0 0 0 0 0 1 1 1 0 0 0 0 0 1 1 1 0 0 0 0 0 0 0 0 0 0 0 0 0 0 0 0
0 0 0 0 0 0 0 0 0 0 0 0 0 0 0 0 0 0 0 0 0 0 1 1 1 1 0 0 0 0 0 1 1 0 0 0 0 0 0 0 0 0 0 0 0 0 0 0 0
0 0 0 0 0 0 0 0 0 0 0 0 0 0 0 0 0 0 0 0 0 0 1 1 1 1 0 0 0 0 0 0 0 0 0 0 0 0 0 0 1 1 1 1 0 0 0 0 0
0 0 0 0 0 0 0 0 0 0 0 0 0 0 0 0 0 0 0 0 0 0 0 1 1 1 0 0 0 0 0 0 0 0 0 0 0 0 0 0 0 1 1 1 1 1 0 0 0
0 0 0 0 0 0 0 0 0 0 0 0 0 0 0 0 0 0 0 0 0 0 0 0 0 0 0 0 0 0 0 0 0 0 0 0 0 0 0 0 0 0 1 1 1 1 1 0 0
0 0 0 0 0 0 0 0 0 0 0 0 0 0 0 0 0 0 0 0 0 0 0 0 0 0 0 0 0 0 0 0 0 0 0 0 0 0 0 0 0 0 0 1 1 1 1 1 0
0 0 0 0 0 0 0 0 0 0 0 0 0 0 0 0 0 0 0 0 0 0 0 0 0 0 0 0 0 0 0 0 0 0 0 0 0 0 0 0 0 0 0 0 1 1 1 1 1
0 0 0 0 0 0 0 0 0 0 0 0 0 0 0 0 0 0 0 0 0 0 0 0 0 0 0 0 0 0 0 0 0 0 0 0 0 0 0 0 0 0 0 0 0 1 1 1 1
0 0 0 0 0 0 0 0 0 0 0 0 0 0 0 0 0 0 0 0 0 0 0 0 0 0 0 0 0 0 0 0 0 0 0 0 0 0 0 0 0 0 0 0 0 0 1 1 1
Wind_Speed
10 9 6 3 3 4 6 4 2 1 2 5 5 4 5 5 4 4 3 5 6 6 7 6 6 7 7 8 7 7 7 7 7 7 6 6 7 7 7 7 8 7 8 8 8 9 9 9 9
8 6 4 3 4 5 5 3 1 2 5 4 3 2 2 4 6 6 3 4 5 6 6 5 5 6 7 7 7 7 7 7 7 6 6 6 6 7 7 7 7 7 7 8 8 8 8 8 8
8 6 4 3 4 5 2 3 4 5 6 3 2 3 3 4 5 4 3 3 5 5 5 5 6 6 6 7 6 6 6 6 6 6 6 5 6 6 6 7 6 7 7 7 7 7 7 8 7
4 3 3 4 6 5 3 2 4 3 3 2 1 2 4 6 5 5 4 4 5 5 5 5 5 5 6 6 6 5 5 6 6 6 6 5 5 6 6 7 6 7 7 7 7 7 7 7 7
3 3 4 5 7 6 2 3 3 1 1 1 1 1 4 6 7 7 4 4 4 4 5 5 5 5 5 5 5 5 5 5 5 5 6 5 6 6 6 6 6 6 7 7 7 7 7 7 6
3 3 5 7 7 4 1 2 1 1 1 2 1 1 4 5 6 5 4 4 4 4 5 5 5 5 4 4 5 4 4 4 5 5 5 6 5 5 6 6 6 6 6 6 7 7 6 6 6
3 4 6 7 5 3 0 2 1 1 0 1 3 1 4 5 4 4 5 5 5 5 5 4 3 3 4 4 3 3 4 4 4 5 5 5 5 5 5 6 6 6 6 6 6 6 6 5 5
3 3 6 6 5 3 1 2 2 3 2 3 3 2 2 3 4 4 4 4 5 5 4 3 2 2 2 2 3 3 3 3 4 4 4 5 5 5 5 5 5 6 6 6 6 6 5 5 4
3 4 5 4 3 1 2 1 1 2 2 2 3 4 4 4 5 5 5 4 4 5 4 3 2 2 2 1 1 2 2 2 3 3 3 3 2 2 3 4 5 5 5 5 5 5 4 4 4
2 4 4 3 3 3 2 1 1 0 1 1 1 2 4 4 4 4 3 3 3 3 4 4 3 2 2 1 1 0 1 1 1 1 1 1 1 1 3 3 4 4 4 4 4 4 3 2 1
2 3 2 4 5 4 3 2 2 2 3 3 2 1 2 3 3 2 2 2 2 2 3 3 3 3 3 2 1 1 0 0 1 1 1 1 1 1 2 2 2 2 2 2 2 1 1 1 1
2 3 3 3 4 2 2 2 2 3 2 4 3 2 2 2 2 1 0 1 2 2 2 3 3 3 2 2 1 1 1 0 0 0 1 1 1 1 1 1 1 1 1 1 1 0 0 1 1
4 3 3 2 2 1 2 3 3 5 2 2 3 2 1 1 0 1 1 1 2 2 2 3 3 3 3 1 1 1 1 1 1 0 0 1 1 1 1 1 1 1 1 1 0 0 1 0 1
1 1 3 3 3 2 2 4 4 5 1 1 1 1 0 0 1 1 2 2 2 2 2 2 2 2 2 1 1 1 1 1 1 1 1 1 1 0 1 1 1 1 1 0 1 1 1 1 1
1 2 5 5 5 3 2 5 6 6 3 2 1 1 0 1 1 1 0 1 1 1 2 2 2 2 2 2 1 1 1 1 1 1 1 1 1 0 0 1 1 1 1 0 0 1 1 1 1
3 4 4 3 3 2 2 6 3 2 3 2 2 1 1 1 0 1 1 1 1 1 1 2 2 2 2 2 1 1 1 1 1 1 1 1 1 0 0 1 1 1 1 0 0 1 1 0 1
4 4 4 2 2 2 4 5 1 1 2 2 2 2 2 1 1 0 1 1 1 1 1 1 2 2 2 1 1 1 1 1 1 1 1 1 1 1 0 1 1 1 0 0 0 0 0 1 1
3 5 5 4 2 2 5 7 4 2 2 3 3 3 2 1 1 1 1 1 2 2 2 2 2 2 2 1 1 1 0 1 1 0 1 1 1 1 1 0 1 1 1 0 0 0 1 0 1
5 6 7 5 2 3 7 9 7 4 4 5 5 3 2 1 0 1 1 1 2 2 2 2 2 2 2 1 1 0 0 0 1 1 1 1 1 1 1 0 1 1 1 1 1 0 0 1 0
5 7 7 4 1 3 6 10 7 6 7 5 4 3 2 1 0 1 1 1 1 1 1 1 1 2 1 1 0 0 0 0 0 1 1 1 1 1 1 0 1 1 1 2 2 1 1 1 0
6 6 6 5 5 5 6 9 7 5 4 3 4 3 3 3 2 1 1 1 1 1 1 1 1 1 1 2 1 1 1 1 1 1 1 1 1 1 1 1 1 1 2 2 3 3 2 2 1
7 3 4 4 4 4 3 6 5 4 3 4 4 3 3 2 1 1 1 0 0 0 1 1 1 1 1 1 1 1 0 1 1 1 1 1 1 1 2 1 1 1 1 2 3 3 2 3 2
3 3 4 5 5 5 5 6 6 3 4 5 4 3 2 1 1 1 1 0 0 1 1 1 1 1 1 1 1 1 1 1 1 1 1 1 1 1 2 2 1 1 1 2 2 2 3 3 3
1 2 3 3 2 5 7 6 6 3 3 2 3 2 2 1 1 1 1 1 1 1 1 1 1 2 2 2 1 1 1 1 1 1 1 1 1 1 2 2 2 1 1 2 2 2 3 3 3
1 0 1 1 3 6 3 5 6 2 1 1 3 2 2 2 1 1 1 1 1 1 1 1 2 2 2 2 2 2 2 1 1 1 1 1 2 2 2 3 2 2 2 2 2 2 3 4 4
4 3 3 3 4 3 2 6 5 2 2 3 2 2 2 1 1 1 1 1 0 1 1 1 1 1 1 2 2 3 3 1 1 1 1 2 2 2 2 3 3 2 2 2 2 2 2 2 3
3 4 2 2 3 4 5 4 3 1 2 2 2 2 1 1 1 1 1 1 1 0 0 0 0 1 1 1 2 2 3 2 2 2 1 2 2 2 2 2 3 3 2 2 2 2 2 2 3
2 1 1 3 3 5 5 5 4 4 4 2 2 1 1 1 1 1 1 1 1 1 1 1 1 1 1 1 1 2 2 3 2 2 2 2 2 2 2 2 3 3 2 2 2 1 2 2 2
4 3 3 3 3 3 5 5 1 3 3 2 2 1 1 1 0 1 1 1 1 1 1 1 1 1 1 1 2 2 2 2 3 2 2 2 3 3 3 3 3 3 3 2 2 2 2 2 2
4 5 5 4 4 4 5 6 1 2 1 2 0 1 1 0 0 1 1 1 1 1 1 1 2 2 2 1 1 2 2 2 2 3 3 2 3 2 3 3 3 3 3 3 3 3 3 3 3
Wind_Direction
295 276 262 253 241 231 239 238 242 50 55 46 24 11 10 14 24 77 79 56 69 99 118 124 110 109 104 100 96 92 89 88 91 91 89 90 89 87 85 82 78 77 77 74 70 68 66 64 62
292 279 259 239 241 238 236 216 192 66 66 64 43 10 17 53 61 84 59 48 72 99 114 123 106 107 105 101 95 93 91 89 89 89 90 91 89 86 84 83 82 80 79 76 75 71 68 65 62
282 270 259 236 237 247 272 56 79 77 73 59 48 20 20 42 60 69 55 55 76 92 101 109 106 109 108 103 96 92 90 91 91 87 85 90 89 86 86 85 87 85 80 77 75 73 71 68 63
269 239 244 246 245 261 284 11 64 94 96 59 51 84 84 44 36 60 73 70 77 83 91 98 96 109 109 105 99 93 91 91 91 84 79 82 86 84 84 85 86 86 82 78 74 73 71 68 63
243 245 230 235 245 257 304 26 40 39 102 90 104 108 92 61 58 66 63 72 76 81 85 100 80 82 102 107 101 93 90 89 90 84 76 73 80 78 80 85 86 86 84 81 77 75 71 67 63
248 244 239 237 240 244 221 51 354 322 17 29 349 231 96 71 60 60 57 60 68 75 82 100 83 72 72 87 94 91 87 87 88 83 75 71 76 76 78 82 85 89 88 85 82 79 76 70 61
265 260 256 259 258 261 286 54 358 298 272 19 336 328 105 65 51 63 63 62 61 65 71 79 84 81 70 63 76 85 82 82 83 80 76 73 71 78 75 78 81 87 87 87 87 82 79 75 64
287 277 257 259 259 266 54 68 21 345 349 28 19 358 52 53 42 61 64 68 64 59 62 62 62 56 58 74 70 79 81 78 79 76 72 73 72 69 74 77 77 83 85 85 87 86 81 76 68
287 256 256 267 280 316 72 82 26 29 357 38 53 32 41 71 61 56 46 45 46 43 41 45 41 42 31 36 82 97 100 87 86 79 72 78 95 90 78 73 73 75 79 84 87 89 87 75 65
235 246 259 321 350 3 42 29 339 210 280 279 9 34 58 69 66 63 47 35 38 31 26 28 20 32 22 20 47 132 157 142 140 120 125 125 93 96 85 66 68 71 73 80 80 82 84 72 68
251 256 307 337 13 12 0 6 329 272 274 287 300 56 85 82 80 66 40 30 25 27 24 28 16 21 31 16 14 351 353 132 160 130 132 117 111 112 105 103 91 85 79 87 89 75 58 53 60
262 297 313 317 13 15 325 299 309 284 306 3 11 69 77 98 117 115 29 26 33 26 21 21 16 14 21 24 18 9 9 33 102 159 129 130 129 119 119 116 121 108 83 102 102 98 64 57 58
236 272 304 337 17 348 319 279 269 277 290 23 20 65 89 79 108 115 83 48 47 32 19 13 22 16 6 11 16 20 20 32 38 94 83 61 114 133 131 132 120 109 85 89 124 151 150 106 73
301 294 293 279 259 256 256 269 264 266 236 128 77 64 42 61 51 47 37 26 27 26 23 10 12 14 4 3 15 10 16 10 43 39 59 60 70 106 138 136 125 112 108 115 191 191 158 125 102
314 279 271 249 234 214 249 272 242 248 206 194 193 194 135 31 56 81 53 23 26 30 29 19 8 11 0 357 5 5 4 2 41 37 47 60 59 52 112 131 115 117 105 64 148 141 127 137 127
234 242 249 234 211 180 203 264 251 178 177 199 211 196 200 196 153 63 49 55 51 51 49 29 9 8 3 2 355 3 6 19 22 29 44 34 9 115 121 124 116 117 126 132 138 152 130 152 170
213 245 255 253 183 185 213 259 289 146 189 221 229 218 215 199 181 139 59 70 76 74 69 58 25 5 1 9 357 7 9 27 35 26 34 25 7 6 78 145 125 129 132 143 181 9 152 188 216
238 254 269 258 194 228 240 256 255 227 237 257 255 241 222 208 226 151 124 92 93 80 63 54 34 11 13 31 25 25 25 29 37 36 30 19 17 353 349 147 146 147 159 152 127 87 330 232 201
282 279 276 278 262 253 254 263 260 232 235 251 256 249 236 221 154 115 130 108 87 78 59 44 40 26 27 29 29 6 314 353 6 359 11 356 15 6 344 309 173 164 179 185 169 151 285 303 39
268 273 276 292 292 273 269 269 262 240 232 237 243 241 236 210 185 97 69 82 93 88 76 51 41 38 26 357 328 329 322 353 34 18 4 350 340 318 271 236 212 197 193 189 184 166 181 239 185
258 253 268 281 302 267 274 273 237 222 218 222 231 233 220 207 206 189 173 106 65 67 96 53 28 35 19 7 17 23 26 22 21 350 325 336 357 354 337 280 235 223 208 207 202 192 188 198 233
261 260 278 280 280 262 238 283 257 214 216 228 232 226 225 217 207 181 167 133 79 22 42 49 38 30 30 35 33 82 46 339 316 289 307 330 328 328 328 308 270 249 235 222 218 206 207 190 206
263 313 278 265 261 275 246 255 267 213 234 230 222 219 218 200 184 173 157 150 21 54 61 41 26 24 18 20 20 337 323 331 352 352 348 332 303 305 316 309 288 262 258 243 230 221 209 210 205
317 312 274 254 236 255 234 229 266 226 224 217 192 190 181 156 139 133 103 63 33 50 58 45 43 15 6 0 2 336 327 346 2 343 317 312 308 309 315 301 292 276 270 254 241 234 225 221 217
222 115 319 264 225 243 225 231 246 212 150 163 172 160 125 113 112 108 100 63 38 37 35 29 35 8 3 359 344 329 321 302 264 279 277 291 291 298 299 303 293 283 278 270 254 239 236 226 217
215 210 192 225 247 278 257 235 238 150 90 68 93 119 115 117 112 100 113 110 38 10 21 27 11 355 358 352 342 342 336 323 301 294 287 275 277 283 297 306 299 296 288 280 261 243 243 235 222
209 220 251 267 284 273 246 243 244 149 147 140 123 109 135 144 118 100 92 89 52 11 4 357 317 337 339 342 341 331 327 332 320 307 302 291 302 306 300 295 296 297 289 277 260 244 243 239 230
258 230 198 208 237 258 257 239 230 198 209 192 185 170 150 138 125 105 84 74 34 6 350 349 354 319 324 335 331 325 318 320 321 323 326 323 315 311 291 290 294 296 293 278 265 261 245 239 237
195 206 218 224 236 239 265 258 171 163 170 184 196 167 155 136 143 118 90 87 55 14 8 359 359 350 343 336 327 324 316 318 323 321 319 320 323 322 296 286 286 285 284 273 260 255 247 237 237
229 212 195 202 237 236 261 267 86 85 100 143 157 10 36 44 89 129 104 87 50 16 23 13 354 338 321 315 317 316 317 325 322 318 319 324 316 310 304 296 284 275 272 267 255 249 244 235 230